This is the latest recevied weather packets stored in our database for station/object BV5AB-13. If no packets are shown the sender has not sent any weather packets the latest 10 day(s).
| Time | Temp. | Humidity | Pressure | Rain* | Wind** | Luminosity | Snow |
|---|---|---|---|---|---|---|---|
| 1777723024 | 26.11° C | 68% | 1001.2 hPa | 0 mm | - | - | - |
| 1777722424 | 26.11° C | 68% | 1001.1 hPa | 0 mm | - | - | - |
| 1777721824 | 26.67° C | 67% | 1000.9 hPa | 0 mm | - | - | - |
| 1777721224 | 26.67° C | 66% | 1000.8 hPa | 0 mm | - | - | - |
| 1777720624 | 26.67° C | 67% | 1000.7 hPa | 0 mm | - | - | - |
| 1777720024 | 27.22° C | 66% | 1000.5 hPa | 0 mm | - | - | - |
| 1777719424 | 27.22° C | 65% | 1000.4 hPa | 0 mm | - | - | - |
| 1777718824 | 27.78° C | 64% | 1000.3 hPa | 0 mm | - | - | - |
| 1777718223 | 27.78° C | 64% | 1000.2 hPa | 0 mm | - | - | - |
| 1777717624 | 27.78° C | 63% | 1000 hPa | 0 mm | - | - | - |
| 1777717024 | 28.33° C | 63% | 999.9 hPa | 0 mm | - | - | - |
| 1777716424 | 28.33° C | 62% | 999.9 hPa | 0 mm | - | - | - |
| 1777715823 | 28.89° C | 61% | 999.9 hPa | 0 mm | - | - | - |
| 1777715224 | 28.89° C | 63% | 999.9 hPa | 0 mm | - | - | - |
| 1777714624 | 28.89° C | 61% | 999.8 hPa | 0 mm | - | - | - |
| 1777714023 | 29.44° C | 60% | 999.8 hPa | 0 mm | - | - | - |
| 1777713424 | 29.44° C | 61% | 999.8 hPa | 0 mm | - | - | - |
| 1777712824 | 29.44° C | 61% | 999.8 hPa | 0 mm | - | - | - |
| 1777712224 | 29.44° C | 60% | 999.7 hPa | 0 mm | - | - | - |
| 1777711624 | 29.44° C | 60% | 999.8 hPa | 0 mm | - | - | - |
| 1777711023 | 29.44° C | 60% | 999.9 hPa | 0 mm | - | - | - |
| 1777710424 | 30° C | 59% | 999.9 hPa | 0 mm | - | - | - |
| 1777709824 | 30° C | 59% | 999.9 hPa | 0 mm | - | - | - |
| 1777709224 | 29.44° C | 59% | 1000 hPa | 0 mm | - | - | - |
| 1777708624 | 30° C | 59% | 1000.1 hPa | 0 mm | - | - | - |
* Rain latest hour (hover to see other rain measurements)
** Current wind speed in m/s (hover to see current wind gust speed)